Location: ???????
(55.4231°N, 38.5570°E)
Time: 13:11:43
(UTC+00:00)

Cosmos 1844 Rocket - Pass Details

Date: 05 August 2024
Orbit: 822 x 845 km, 71.0° (Epoch: 18 September)

Event Time Altitude Azimuth Distance (km) Brightness Sun altitude
Rises 00:27:45 0° 317° (NW) 3,395 5.9 -8.7°
Reaches altitude 10° 00:31:18 10° 295° (WNW) 2,460 4.9 -8.4°
Maximum altitude 00:34:14 15° 263° (W) 2,148 4.4 -8.1°
Drops below altitude 10° 00:37:10 10° 231° (SW) 2,458 4.4 -7.8°
Enters shadow 00:37:25 - 229° (SW) 2,508 4.5 -7.8°
